Rotterdam, Netherlands

10:49 AM CEST on July 25, 2017 (GMT +0200)
Rotterdam

Weather History for EHRD - October, 2012

Change the Weather History Date:

Sunday, October 7, 2012

  Actual Average Record
Temperature  
Mean Temperature 49 °F -  
Max Temperature 59 °F 54 °F 66 °F (1997)
Min Temperature 39 °F 44 °F 37 °F (2002)
Degree Days  
Heating Degree Days 16    
Moisture  
Dew Point 44 °F    
Average Humidity 84    
Maximum Humidity 100    
Minimum Humidity 51    
Precipitation  
Precipitation 0.00 in - - ()
Sea Level Pressure  
Sea Level Pressure 30.12 in    
Wind  
Wind Speed 3 mph ()    
Max Wind Speed 10 mph    
Max Gust Speed -    
Visibility 6.0 miles    
Events Fog    
Averages and records for this station are not official NWS values.
T = Trace of Precipitation, MM = Missing Value Source: Averaged Metar Reports

Daily Weather History Graph

Daily Weather History Graph

Search for Another Location

Airport or City:

Trip Planner

Search our weather history database for the weather conditions in past years. The results will help you decide how hot, cold, wet, or windy it might be!

Date:

Astronomy

Oct. 07, 2012 Rise Set
Actual Time 7:53 AM CEST 7:05 PM CEST
Civil Twilight 7:19 AM CEST 7:38 PM CEST
Nautical Twilight 6:40 AM CEST 8:17 PM CEST
Astronomical Twilight 6:01 AM CEST 8:57 PM CEST
Moon 11:31 PM CEST (10/7) 2:51 PM CEST (10/7)
Length of Visible Light 12h 18m
Length of Day
11h 11m
Waning Gibbous, 58% of the Moon is Illuminated
Oct 7
Waning Gibbous
Oct 8
Last Quarter
Oct 15
New
Oct 22
First Quarter
Oct 29
Full

Hourly Weather History & Observations

Time (CEST) Temp. Windchill Dew Point Humidity Pressure Visibility Wind Dir Wind Speed Gust Speed Precip Events Conditions
12:25 AM 44.6 °F - 44.6 °F 100% 29.98 in - NNW 1.2 mph - N/A   Partly Cloudy
12:55 AM 44.6 °F - 44.6 °F 100% 29.98 in 6.2 mi South 1.2 mph - N/A   Unknown
1:25 AM 42.8 °F - 42.8 °F 100% 29.98 in 5.0 mi Variable 1.2 mph - N/A   Unknown
1:55 AM 42.8 °F - 42.8 °F 100% 29.98 in - Variable 1.2 mph - N/A   Mist
2:00 AM 41 °F - 41 °F 99% 30.01 in 1 mi SW 2.2 mph - - Fog Fog
2:25 AM 41.0 °F - 41.0 °F 100% 29.98 in 0.6 mi SE 1.2 mph - N/A   Mostly Cloudy
2:55 AM 42.8 °F 41.1 °F 41.0 °F 93% 29.98 in 6.2 mi South 3.5 mph - N/A   Unknown
3:25 AM 41.0 °F - 41.0 °F 100% 30.01 in 4.3 mi Variable 1.2 mph - N/A   Mostly Cloudy
3:55 AM 44.6 °F - 44.6 °F 100% 30.01 in 6.2 mi Variable 1.2 mph - N/A   Overcast
4:25 AM 44.6 °F 43.1 °F 44.6 °F 100% 30.01 in 6.2 mi SW 3.5 mph - N/A   Unknown
4:55 AM 42.8 °F 41.1 °F 42.8 °F 100% 30.01 in 6.2 mi West 3.5 mph - N/A   Mostly Cloudy
5:00 AM 43 °F - 43 °F 100% 30.02 in 22 mi West 2.2 mph - -   Partly Cloudy
5:25 AM 42.8 °F - 42.8 °F 100% 30.01 in 6.2 mi Variable 1.2 mph - N/A   Partly Cloudy
5:55 AM 41.0 °F - 41.0 °F 100% 30.01 in 6.2 mi West 2.3 mph - N/A   Partly Cloudy
6:25 AM 42.8 °F - 42.8 °F 100% 30.01 in 6.2 mi SSW 1.2 mph - N/A   Unknown
6:55 AM 42.8 °F - 42.8 °F 100% 30.04 in 6.2 mi Variable 1.2 mph - N/A   Unknown
7:25 AM 41.0 °F - 41.0 °F 100% 30.04 in 3.7 mi WSW 2.3 mph - N/A   Unknown
7:55 AM 41.0 °F - 41.0 °F 100% 30.04 in 6.2 mi Variable 2.3 mph - N/A   Mostly Cloudy
8:00 AM 42 °F - 42 °F 99% 30.07 in 8 mi NW 2.2 mph - -   Partly Cloudy
8:25 AM 42.8 °F - 42.8 °F 100% 30.06 in 3.1 mi NW 2.3 mph - N/A   Mist
8:55 AM 44.6 °F - 44.6 °F 100% 30.06 in 6.2 mi Variable 2.3 mph - N/A   Unknown
9:25 AM 48.2 °F - 46.4 °F 93% 30.09 in 6.2 mi Variable 1.2 mph - N/A   Partly Cloudy
9:55 AM 51.8 °F - 46.4 °F 82% 30.09 in 6.2 mi Variable 1.2 mph - N/A   Unknown
10:25 AM 53.6 °F - 46.4 °F 77% 30.09 in 6.2 mi NNW 4.6 mph - N/A   Unknown
10:55 AM 55.4 °F - 42.8 °F 63% 30.12 in 6.2 mi NNW 10.4 mph - N/A   Unknown
11:00 AM 56 °F - 44 °F 53% 30.14 in 22 mi NNW 8.9 mph - -   Scattered Clouds
11:25 AM 57.2 °F - 44.6 °F 63% 30.12 in 6.2 mi NNW 9.2 mph - N/A   Mostly Cloudy
11:55 AM 57.2 °F - 44.6 °F 63% 30.12 in 6.2 mi NNW 10.4 mph - N/A   Unknown
12:25 PM 59.0 °F - 44.6 °F 59% 30.15 in 6.2 mi NNW 9.2 mph - N/A   Mostly Cloudy
12:55 PM 55.4 °F - 42.8 °F 63% 30.15 in 6.2 mi NNW 9.2 mph - N/A   Scattered Clouds
1:25 PM 55.4 °F - 44.6 °F 67% 30.15 in 6.2 mi NNW 8.1 mph - N/A   Scattered Clouds
1:55 PM 59.0 °F - 44.6 °F 59% 30.18 in 6.2 mi NW 8.1 mph - N/A   Partly Cloudy
2:00 PM 58 °F - 45 °F 51% 30.19 in 25 mi NNW 8.9 mph - -   Partly Cloudy
2:25 PM 59.0 °F - 42.8 °F 55% 30.18 in 6.2 mi NNW 6.9 mph - N/A   Unknown
2:55 PM 59.0 °F - 42.8 °F 55% 30.18 in 6.2 mi NNW 9.2 mph - N/A   Unknown
3:25 PM 57.2 °F - 42.8 °F 59% 30.18 in 6.2 mi WNW 8.1 mph - N/A   Mostly Cloudy
3:55 PM 59.0 °F - 42.8 °F 55% 30.18 in 6.2 mi NW 8.1 mph - N/A   Scattered Clouds
4:25 PM 57.2 °F - 46.4 °F 67% 30.18 in 6.2 mi NW 8.1 mph - N/A   Mostly Cloudy
4:55 PM 57.2 °F - 46.4 °F 67% 30.18 in 6.2 mi NW 5.8 mph - N/A   Mostly Cloudy
5:00 PM 58 °F - 46 °F 53% 30.21 in 25 mi NW 6.7 mph - -   Partly Cloudy
5:25 PM 57.2 °F - 46.4 °F 67% 30.18 in 6.2 mi NNW 9.2 mph - N/A   Scattered Clouds
5:55 PM 55.4 °F - 46.4 °F 72% 30.18 in 6.2 mi NNW 4.6 mph - N/A   Unknown
6:25 PM 55.4 °F - 44.6 °F 67% 30.18 in 6.2 mi NNW 3.5 mph - N/A   Unknown
6:55 PM 50.0 °F - 44.6 °F 82% 30.21 in 6.2 mi Variable 2.3 mph - N/A   Unknown
7:25 PM 50.0 °F - 44.6 °F 82% 30.21 in 6.2 mi West 1.2 mph - N/A   Partly Cloudy
7:55 PM 46.4 °F - 42.8 °F 87% 30.21 in 6.2 mi Variable 1.2 mph - N/A   Unknown
8:00 PM 47 °F - 44 °F 84% 30.23 in 28 mi SW 2.2 mph - -   Partly Cloudy
8:25 PM 46.4 °F - 44.6 °F 93% 30.21 in 6.2 mi SSW 1.2 mph - N/A   Partly Cloudy
8:55 PM 46.4 °F - 44.6 °F 93% 30.21 in 6.2 mi Variable 1.2 mph - N/A   Partly Cloudy
9:25 PM 46.4 °F - 44.6 °F 93% 30.21 in 6.2 mi SSW 2.3 mph - N/A   Unknown
9:55 PM 44.6 °F - 44.6 °F 100% 30.21 in 6.2 mi SSE 1.2 mph - N/A   Unknown
10:25 PM 44.6 °F - 44.6 °F 100% 30.21 in 6.2 mi ESE 1.2 mph - N/A   Partly Cloudy
10:55 PM 42.8 °F - 42.8 °F 100% 30.21 in 6.2 mi Variable 2.3 mph - N/A   Unknown
11:00 PM 44 °F - 44 °F 100% 30.24 in 16 mi 2.2 mph - -   Scattered Clouds
11:25 PM 44.6 °F - 44.6 °F 100% 30.21 in 6.2 mi Variable 1.2 mph - N/A   Overcast
11:55 PM 44.6 °F - 44.6 °F 100% 30.21 in 4.3 mi Variable 1.2 mph - N/A   Unknown